Ouarzazate, Morocco

10:11 AM WEST on March 27, 2017 (GMT +0100)
Ouarzazate

Weather History for GMMZ - October, 2012

Change the Weather History Date:

Monday, October 22, 2012

  Actual Average Record
Temperature  
Mean Temperature 62 °F -  
Max Temperature 76 °F 72 °F - ()
Min Temperature 48 °F 47 °F - ()
Degree Days  
Heating Degree Days 3    
Growing Degree Days 12 (Base 50)    
Moisture  
Dew Point 33 °F    
Average Humidity 32    
Maximum Humidity 62    
Minimum Humidity 7    
Precipitation  
Precipitation 0.00 in 0.02 in - ()
Sea Level Pressure  
Sea Level Pressure 30.18 in    
Wind  
Wind Speed 3 mph ()    
Max Wind Speed 12 mph    
Max Gust Speed -    
Visibility 12.0 miles    
Events      
T = Trace of Precipitation, MM = Missing Value Source: Averaged Metar Reports

Daily Weather History Graph

Daily Weather History Graph

Search for Another Location

Airport or City:

Trip Planner

Search our weather history database for the weather conditions in past years. The results will help you decide how hot, cold, wet, or windy it might be!

Date:

Astronomy

Oct. 22, 2012 Rise Set
Actual Time 6:35 AM WET 5:48 PM WET
Civil Twilight 6:10 AM WET 6:12 PM WET
Nautical Twilight 5:42 AM WET 6:41 PM WET
Astronomical Twilight 5:14 AM WET 7:09 PM WET
Moon 1:21 PM WET (10/22) No Moon Set
Length of Visible Light 12h 02m
Length of Day
11h 12m
First Quarter, 54% of the Moon is Illuminated
Oct 22
First Quarter
Oct 29
Full
Nov 7
Last Quarter
Nov 13
New
Nov 20
First Quarter

Hourly Weather History & Observations

Time (WET) Temp. Dew Point Humidity Pressure Visibility Wind Dir Wind Speed Gust Speed Precip Events Conditions
12:00 AM 59.0 °F 35.6 °F 42% 30.15 in - Calm Calm - N/A   Clear
1:00 AM 57.2 °F 35.6 °F 44% 30.15 in - Variable 1.2 mph - N/A   Clear
2:00 AM 57.2 °F 35.6 °F 44% 30.15 in - Variable 3.5 mph - N/A   Clear
3:00 AM 56 °F 34 °F 31%  in 12 mi WSW 2.3 mph - -   Clear
3:00 AM 53.6 °F 35.6 °F 51% 30.15 in - Variable 1.2 mph - N/A   Clear
4:00 AM 55.4 °F 33.8 °F 44% 30.15 in - Variable 2.3 mph - N/A   Clear
5:00 AM 50.0 °F 35.6 °F 58% 30.18 in - Variable 1.2 mph - N/A   Clear
6:00 AM 50 °F 35 °F 45%  in 12 mi West 3.5 mph - -   Clear
6:00 AM 50.0 °F 35.6 °F 58% 30.18 in - Variable 3.5 mph - N/A   Clear
7:00 AM 48.2 °F 35.6 °F 62% 30.21 in - Variable 1.2 mph - N/A   Clear
8:00 AM 53.6 °F 35.6 °F 51% 30.21 in - Variable 2.3 mph - N/A   Clear
9:00 AM 59 °F 34 °F 27%  in 12 mi Calm Calm - -   Clear
9:00 AM 59.0 °F 33.8 °F 39% 30.24 in - Calm Calm - N/A   Clear
11:00 AM 68.0 °F 33.8 °F 28% 30.24 in - Calm Calm - N/A   Clear
12:00 PM 69.8 °F 30.2 °F 23% 30.21 in - Variable 2.3 mph - N/A   Clear
1:00 PM 71.6 °F 30.2 °F 22% 30.18 in - Variable 1.2 mph - N/A   Clear
3:00 PM 75 °F 24 °F 7%  in 12 mi SSW 6.9 mph - -   Clear
3:00 PM 75.2 °F 24.8 °F 15% 30.15 in - SSW 6.9 mph - N/A   Clear
4:00 PM 75.2 °F 24.8 °F 15% 30.15 in - Variable 2.3 mph - N/A   Clear
5:00 PM 75.2 °F 23.0 °F 14% 30.15 in - Variable 2.3 mph - N/A   Clear
6:00 PM 74 °F 25 °F 8%  in 12 mi ENE 3.5 mph - -   Clear
6:00 PM 73.4 °F 24.8 °F 16% 30.15 in - Variable 3.5 mph - N/A   Clear
7:00 PM 73.4 °F 35.6 °F 25% 30.15 in - SSW 5.8 mph - N/A   Clear
8:00 PM 73.4 °F 39.2 °F 29% 30.15 in - SW 11.5 mph - N/A   Clear
9:00 PM 73 °F 40 °F 19%  in 12 mi SW 10.4 mph - -   Clear
9:00 PM 73.4 °F 39.2 °F 29% 30.18 in - SW 11.5 mph - N/A   Clear
10:00 PM 69.8 °F 41.0 °F 35% 30.18 in - WSW 5.8 mph - N/A   Clear
11:00 PM 69.8 °F 30.2 °F 23% 30.21 in - SSW 5.8 mph - N/A   Clear